Change the Weather History Date:

Friday, October 19, 2012

  Actual Average Record
Temperature  
Mean Temperature 53 °F 50 °F  
Max Temperature 63 °F 60 °F 83 °F (1938)
Min Temperature 43 °F 41 °F 23 °F (1972)
Degree Days  
Heating Degree Days 12 15  
Month to date heating degree days 245 237  
Since 1 July heating degree days 435 420  
Cooling Degree Days 0 0  
Month to date cooling degree days 1 3  
Year to date cooling degree days 759 541  
Growing Degree Days 4 (Base 50)    
Moisture  
Dew Point 41 °F    
Average Humidity 68    
Maximum Humidity 100    
Minimum Humidity 36    
Precipitation  
Precipitation 0.08 in 0.08 in 0.61 in (2006)
Month to date precipitation 1.63 1.73  
Year to date precipitation 34.86 31.70  
Snow  
Snow 0.00 in 0.10 in - ()
Month to date snowfall 0.0 0.3  
Since 1 July snowfall T 0.3  
Since 1 September snowfall 0.0 0.3  
Snow Depth 0.00 in    
Sea Level Pressure  
Sea Level Pressure 29.70 in    
Wind  
Wind Speed 10 mph (SSE)    
Max Wind Speed 20 mph    
Max Gust Speed 24 mph    
Visibility 7 miles    
Events Fog , Rain    
T = Trace of Precipitation, MM = Missing Value Source: NWS Daily Summary

Daily Weather History Graph

Daily Weather History Graph

Search for Another Location

Airport or City:

Trip Planner

Search our weather history database for the weather conditions in past years. The results will help you decide how hot, cold, wet, or windy it might be!

Date:

Astronomy

Oct. 19, 2012 Rise Set
Actual Time 7:39 AM EDT 6:35 PM EDT
Civil Twilight 7:11 AM EDT 7:03 PM EDT
Nautical Twilight 6:39 AM EDT 7:35 PM EDT
Astronomical Twilight 6:07 AM EDT 8:07 PM EDT
Moon 12:22 PM EDT (10/19) 10:09 PM EDT (10/19)
Length of Visible Light 11h 51m
Length of Day
10h 55m
Waxing Crescent, 23% of the Moon is Illuminated
Oct 19
Waxing Crescent
Oct 21
First Quarter
Oct 29
Full
Nov 6
Last Quarter
Nov 13
New

Hourly Weather History & Observations

Time (EDT) Temp. Windchill Dew Point Humidity Pressure Visibility Wind Dir Wind Speed Gust Speed Precip Events Conditions
12:51 AM 45.0 °F 41.2 °F 43.0 °F 93% 29.78 in 9.0 mi SE 6.9 mph - N/A   Clear
1:51 AM 45.0 °F 40.6 °F 42.1 °F 90% 29.78 in 10.0 mi SE 8.1 mph - N/A   Clear
2:28 AM 44.6 °F 39.2 °F 42.8 °F 93% 29.77 in 4.0 mi ESE 10.4 mph - N/A   Mostly Cloudy
2:51 AM 44.1 °F 39.0 °F 42.1 °F 93% 29.78 in 2.0 mi ESE 9.2 mph - N/A Fog Mostly Cloudy
2:54 AM 44.6 °F 39.2 °F 42.8 °F 93% 29.76 in 1.5 mi ESE 10.4 mph - N/A Fog Mostly Cloudy
3:51 AM 44.1 °F 38.1 °F 42.1 °F 93% 29.76 in 1.5 mi ESE 11.5 mph - N/A Fog Mostly Cloudy
4:51 AM 44.1 °F 38.6 °F 43.0 °F 96% 29.75 in 1.2 mi ESE 10.4 mph - N/A Fog Mostly Cloudy
5:51 AM 45.0 °F 40.1 °F 43.0 °F 93% 29.73 in 1.0 mi ESE 9.2 mph - N/A Fog Overcast
6:51 AM 45.0 °F 40.6 °F 44.1 °F 97% 29.73 in 1.5 mi SE 8.1 mph 17.3 mph N/A Fog Overcast
7:28 AM 46.4 °F 41.5 °F 44.6 °F 93% 29.72 in 2.0 mi ESE 10.4 mph - N/A   Overcast
7:51 AM 46.0 °F 40.6 °F 45.0 °F 96% 29.73 in 2.5 mi SE 11.5 mph - N/A   Overcast
8:04 AM 46.4 °F 41.5 °F 44.6 °F 93% 29.72 in 4.0 mi SE 10.4 mph - N/A   Overcast
8:37 AM 46.4 °F 41.9 °F 44.6 °F 93% 29.72 in 7.0 mi SE 9.2 mph - N/A   Overcast
8:51 AM 46.9 °F - 44.1 °F 90% 29.73 in 10.0 mi SE 8.1 mph - N/A   Overcast
9:51 AM 48.0 °F - 44.1 °F 86% 29.73 in 10.0 mi SE 8.1 mph - N/A   Mostly Cloudy
10:51 AM 54.0 °F - 44.1 °F 69% 29.70 in 10.0 mi SE 11.5 mph 17.3 mph N/A   Mostly Cloudy
11:51 AM 57.9 °F - 43.0 °F 58% 29.68 in 10.0 mi South 11.5 mph 16.1 mph N/A   Mostly Cloudy
12:51 PM 61.0 °F - 39.9 °F 46% 29.67 in 10.0 mi SSW 10.4 mph - N/A   Mostly Cloudy
1:51 PM 61.0 °F - 39.0 °F 44% 29.63 in 10.0 mi South 9.2 mph 19.6 mph N/A   Overcast
2:51 PM 62.1 °F - 36.0 °F 38% 29.62 in 10.0 mi SSW 11.5 mph 20.7 mph N/A   Overcast
3:51 PM 62.1 °F - 35.1 °F 37% 29.60 in 10.0 mi South 6.9 mph 16.1 mph N/A   Overcast
4:51 PM 60.1 °F - 34.0 °F 38% 29.60 in 10.0 mi South 5.8 mph - N/A   Overcast
5:51 PM 60.1 °F - 33.1 °F 36% 29.61 in 10.0 mi SSE 12.7 mph 18.4 mph N/A   Overcast
6:51 PM 59.0 °F - 34.0 °F 39% 29.63 in 10.0 mi SSW 8.1 mph - N/A   Overcast
7:51 PM 57.0 °F - 34.0 °F 42% 29.65 in 10.0 mi SW 11.5 mph - N/A   Overcast
8:51 PM 50.0 °F - 42.1 °F 74% 29.68 in 10.0 mi WSW 13.8 mph - 0.00 in Rain Light Rain
9:51 PM 46.9 °F - 44.1 °F 90% 29.69 in 8.0 mi SW 8.1 mph - 0.03 in Rain Light Rain
10:51 PM 46.0 °F 42.5 °F 44.1 °F 93% 29.68 in 6.0 mi SSW 6.9 mph - 0.04 in Rain Light Rain
11:51 PM 46.0 °F 41.0 °F 42.1 °F 86% 29.68 in 10.0 mi SSW 10.4 mph - 0.01 in   Overcast